Torna al catalogo

STARLINK-34047

AttivoComunicazioniVLEO
NORAD 63821·PAYLOAD·🇺🇸 United States

Lanciato May 4, 2025 da Cape Canaveral Space Force Station

Loading…

Prossimi Passaggi (prossime 24 ore)

TLE

AggiornatoSource: CelesTrak SupGP

Epoca: Sep 14, 2026, 22:46 UTC

1 63821C 25092T   26257.94909722 -.00047469  00000+0 -17193-2 0  2573
2 63821  43.0029 183.8432 0001414 264.5696 246.8573 15.27603248    11

Traccia STARLINK-34047 in tempo reale con AllMySat

Download on the App Store